Time,TemperatureF,DewpointF,PressureIn,WindDirection,WindDirectionDegrees,WindSpeedMPH,WindSpeedGustMPH,Humidity,HourlyPrecipIn,Conditions,Clouds,dailyrainin,SoftwareType,DateUTC
2013-04-11 00:03:00,31.3,10.3,23.42,NNE,13,0.0,0.0,41,0.00,,---,0.00,VWS V14.00,2013-04-11 07:03:00,
2013-04-11 00:08:00,31.3,10.3,23.42,East,99,0.0,0.0,41,0.00,,---,0.00,VWS V14.00,2013-04-11 07:08:00,
2013-04-11 00:13:00,31.3,10.3,23.42,East,99,0.0,0.0,41,0.00,,---,0.00,VWS V14.00,2013-04-11 07:13:00,
2013-04-11 00:18:00,31.1,10.2,23.42,East,99,0.0,0.0,41,0.00,,---,0.00,VWS V14.00,2013-04-11 07:18:00,
2013-04-11 00:23:00,31.1,10.2,23.42,East,99,0.0,0.0,41,0.00,,---,0.00,VWS V14.00,2013-04-11 07:23:00,
2013-04-11 00:28:00,30.9,10.0,23.45,North,357,2.2,4.0,41,0.00,,---,0.00,VWS V14.00,2013-04-11 07:28:00,
2013-04-11 00:33:00,30.7,9.8,23.45,North,357,0.0,0.0,41,0.00,,---,0.00,VWS V14.00,2013-04-11 07:33:00,
2013-04-11 00:38:00,30.6,9.7,23.45,North,357,0.0,0.0,41,0.00,,---,0.00,VWS V14.00,2013-04-11 07:38:00,
2013-04-11 00:43:00,30.4,9.5,23.42,North,357,0.0,0.0,41,0.00,,---,0.00,VWS V14.00,2013-04-11 07:43:00,
2013-04-11 00:49:00,30.2,9.4,23.42,North,357,0.0,0.0,41,0.00,,---,0.00,VWS V14.00,2013-04-11 07:49:00,
2013-04-11 00:54:00,30.2,9.4,23.42,North,357,0.0,0.0,41,0.00,,---,0.00,VWS V14.00,2013-04-11 07:54:00,
2013-04-11 00:59:00,30.0,9.2,23.42,NNW,342,0.0,0.0,41,0.00,,---,0.00,VWS V14.00,2013-04-11 07:59:00,
2013-04-11 01:05:00,29.8,9.0,23.42,NW,319,0.0,0.0,41,0.00,,---,0.00,VWS V14.00,2013-04-11 08:05:00,
2013-04-11 01:10:00,29.7,8.9,23.42,East,97,0.0,0.0,41,0.00,,---,0.00,VWS V14.00,2013-04-11 08:10:00,
2013-04-11 01:15:00,29.5,8.7,23.42,North,1,4.0,4.0,41,0.00,,---,0.00,VWS V14.00,2013-04-11 08:15:00,
2013-04-11 01:20:00,29.5,8.7,23.42,North,1,0.0,0.0,41,0.00,,---,0.00,VWS V14.00,2013-04-11 08:20:00,
2013-04-11 01:25:00,29.3,8.5,23.42,North,1,0.0,0.0,41,0.00,,---,0.00,VWS V14.00,2013-04-11 08:25:00,
2013-04-11 01:30:00,29.1,8.4,23.42,North,1,0.0,0.0,41,0.00,,---,0.00,VWS V14.00,2013-04-11 08:30:00,
2013-04-11 01:35:00,28.9,8.2,23.42,North,0,0.0,0.0,41,0.00,,---,0.00,VWS V14.00,2013-04-11 08:35:00,
2013-04-11 01:40:00,28.8,8.0,23.42,North,0,0.0,0.0,41,0.00,,---,0.00,VWS V14.00,2013-04-11 08:40:00,
2013-04-11 01:46:00,28.8,8.0,23.42,North,357,0.0,0.0,41,0.00,,---,0.00,VWS V14.00,2013-04-11 08:46:00,
2013-04-11 01:51:00,28.6,7.9,23.42,North,357,0.0,0.0,41,0.00,,---,0.00,VWS V14.00,2013-04-11 08:51:00,
2013-04-11 01:57:00,28.6,7.9,23.42,WNW,296,5.4,5.4,41,0.00,,---,0.00,VWS V14.00,2013-04-11 08:57:00,
2013-04-11 02:02:00,28.6,7.9,23.42,WNW,296,0.0,0.0,41,0.00,,---,0.00,VWS V14.00,2013-04-11 09:02:00,
2013-04-11 02:07:00,28.6,7.9,23.42,WNW,296,0.0,0.0,41,0.00,,---,0.00,VWS V14.00,2013-04-11 09:07:00,
2013-04-11 02:12:00,28.4,7.7,23.42,WNW,296,0.0,0.0,41,0.00,,---,0.00,VWS V14.00,2013-04-11 09:12:00,
2013-04-11 02:18:00,28.2,7.6,23.42,WNW,296,0.0,0.0,41,0.00,,---,0.00,VWS V14.00,2013-04-11 09:18:00,
2013-04-11 02:23:00,28.0,7.4,23.42,WNW,296,0.0,0.0,41,0.00,,---,0.00,VWS V14.00,2013-04-11 09:23:00,
2013-04-11 02:28:00,28.0,7.4,23.39,NW,322,0.0,0.0,41,0.00,,---,0.00,VWS V14.00,2013-04-11 09:28:00,
2013-04-11 02:33:00,27.9,7.2,23.39,NW,322,2.7,2.7,41,0.00,,---,0.00,VWS V14.00,2013-04-11 09:33:00,
2013-04-11 02:38:00,27.9,7.2,23.39,NW,322,0.0,0.0,41,0.00,,---,0.00,VWS V14.00,2013-04-11 09:38:00,
2013-04-11 02:43:00,27.9,7.2,23.39,WNW,300,0.0,0.0,41,0.00,,---,0.00,VWS V14.00,2013-04-11 09:43:00,
2013-04-11 02:48:00,28.2,7.6,23.39,NNW,343,2.7,4.0,41,0.00,,---,0.00,VWS V14.00,2013-04-11 09:48:00,
2013-04-11 02:53:00,28.9,8.2,23.39,NW,308,0.0,2.7,41,0.00,,---,0.00,VWS V14.00,2013-04-11 09:53:00,
2013-04-11 02:58:00,29.1,8.4,23.39,SW,222,3.1,3.1,41,0.00,,---,0.00,VWS V14.00,2013-04-11 09:58:00,
2013-04-11 03:04:00,29.1,8.4,23.39,West,266,0.0,2.2,41,0.00,,---,0.00,VWS V14.00,2013-04-11 10:04:00,
2013-04-11 03:09:00,28.9,8.2,23.39,West,266,0.0,0.0,41,0.00,,---,0.00,VWS V14.00,2013-04-11 10:09:00,
2013-04-11 03:14:00,28.9,8.2,23.39,West,266,0.0,0.0,41,0.00,,---,0.00,VWS V14.00,2013-04-11 10:14:00,
2013-04-11 03:19:00,28.6,7.9,23.39,West,266,0.0,0.0,41,0.00,,---,0.00,VWS V14.00,2013-04-11 10:19:00,
2013-04-11 03:24:00,28.6,7.9,23.39,West,266,0.0,0.0,41,0.00,,---,0.00,VWS V14.00,2013-04-11 10:24:00,
2013-04-11 03:29:00,28.4,7.7,23.39,West,266,0.0,0.0,41,0.00,,---,0.00,VWS V14.00,2013-04-11 10:29:00,
2013-04-11 03:35:00,28.2,7.6,23.39,West,266,0.0,0.0,41,0.00,,---,0.00,VWS V14.00,2013-04-11 10:35:00,
2013-04-11 03:40:00,28.0,7.4,23.39,West,266,0.0,0.0,41,0.00,,---,0.00,VWS V14.00,2013-04-11 10:40:00,
2013-04-11 03:45:00,27.9,7.2,23.39,West,266,0.0,0.0,41,0.00,,---,0.00,VWS V14.00,2013-04-11 10:45:00,
2013-04-11 03:50:00,27.9,7.2,23.39,West,266,0.0,0.0,41,0.00,,---,0.00,VWS V14.00,2013-04-11 10:50:00,
2013-04-11 03:55:00,27.7,7.1,23.39,West,266,0.0,0.0,41,0.00,,---,0.00,VWS V14.00,2013-04-11 10:55:00,
2013-04-11 04:00:00,27.5,6.9,23.39,West,266,0.0,0.0,41,0.00,,---,0.00,VWS V14.00,2013-04-11 11:00:00,
2013-04-11 04:05:00,27.3,6.7,23.39,West,266,0.0,0.0,41,0.00,,---,0.00,VWS V14.00,2013-04-11 11:05:00,
2013-04-11 04:10:00,27.1,6.6,23.39,West,266,0.0,0.0,41,0.00,,---,0.00,VWS V14.00,2013-04-11 11:10:00,
2013-04-11 04:15:00,27.1,6.6,23.39,West,266,0.0,0.0,41,0.00,,---,0.00,VWS V14.00,2013-04-11 11:15:00,
2013-04-11 04:20:00,27.0,6.4,23.39,West,266,0.0,0.0,41,0.00,,---,0.00,VWS V14.00,2013-04-11 11:20:00,
2013-04-11 04:25:00,27.0,6.4,23.39,West,266,0.0,0.0,41,0.00,,---,0.00,VWS V14.00,2013-04-11 11:25:00,
2013-04-11 04:30:00,27.0,6.4,23.39,West,266,0.0,0.0,41,0.00,,---,0.00,VWS V14.00,2013-04-11 11:30:00,
2013-04-11 04:35:00,27.0,6.4,23.39,West,266,0.0,0.0,41,0.00,,---,0.00,VWS V14.00,2013-04-11 11:35:00,
2013-04-11 04:41:00,27.0,6.4,23.39,West,266,0.0,0.0,41,0.00,,---,0.00,VWS V14.00,2013-04-11 11:41:00,
2013-04-11 04:47:00,26.8,6.2,23.39,SSW,194,2.2,3.6,41,0.00,,---,0.00,VWS V14.00,2013-04-11 11:47:00,
2013-04-11 04:52:00,26.8,6.2,23.39,SSW,194,0.0,0.0,41,0.00,,---,0.00,VWS V14.00,2013-04-11 11:52:00,
2013-04-11 04:57:00,26.8,6.2,23.39,SSW,194,0.0,0.0,41,0.00,,---,0.00,VWS V14.00,2013-04-11 11:57:00,
2013-04-11 05:02:00,26.6,6.6,23.39,SSW,194,0.0,0.0,42,0.00,,---,0.00,VWS V14.00,2013-04-11 12:02:00,
2013-04-11 05:07:00,26.4,6.4,23.39,SSW,194,0.0,0.0,42,0.00,,---,0.00,VWS V14.00,2013-04-11 12:07:00,
2013-04-11 05:12:00,26.4,6.4,23.39,SSW,194,0.0,0.0,42,0.00,,---,0.00,VWS V14.00,2013-04-11 12:12:00,
2013-04-11 05:17:00,26.2,6.3,23.39,SSW,194,0.0,0.0,42,0.00,,---,0.00,VWS V14.00,2013-04-11 12:17:00,
2013-04-11 05:22:00,26.1,6.1,23.39,SSW,194,0.0,0.0,42,0.00,,---,0.00,VWS V14.00,2013-04-11 12:22:00,
2013-04-11 05:28:00,26.1,6.1,23.39,SSW,194,0.0,0.0,42,0.00,,---,0.00,VWS V14.00,2013-04-11 12:28:00,
2013-04-11 05:33:00,25.9,6.0,23.39,SSW,194,0.0,0.0,42,0.00,,---,0.00,VWS V14.00,2013-04-11 12:33:00,
2013-04-11 05:38:00,25.7,5.8,23.39,SSW,194,0.0,0.0,42,0.00,,---,0.00,VWS V14.00,2013-04-11 12:38:00,
2013-04-11 05:43:00,25.7,5.8,23.39,SSW,194,0.0,0.0,42,0.00,,---,0.00,VWS V14.00,2013-04-11 12:43:00,
2013-04-11 05:48:00,25.5,5.6,23.39,SSW,194,0.0,0.0,42,0.00,,---,0.00,VWS V14.00,2013-04-11 12:48:00,
2013-04-11 05:53:00,25.5,5.6,23.39,SSW,194,0.0,0.0,42,0.00,,---,0.00,VWS V14.00,2013-04-11 12:53:00,
2013-04-11 05:59:00,25.5,5.6,23.39,SSW,194,0.0,0.0,42,0.00,,---,0.00,VWS V14.00,2013-04-11 12:59:00,
2013-04-11 06:04:00,25.3,5.5,23.39,SSW,194,0.0,0.0,42,0.00,,---,0.00,VWS V14.00,2013-04-11 13:04:00,
2013-04-11 06:09:00,25.3,5.5,23.39,SSW,194,0.0,0.0,42,0.00,,---,0.00,VWS V14.00,2013-04-11 13:09:00,
2013-04-11 06:14:00,25.3,5.5,23.39,SSW,194,0.0,0.0,42,0.00,,---,0.00,VWS V14.00,2013-04-11 13:14:00,
2013-04-11 06:19:00,25.3,5.5,23.39,SSW,194,0.0,0.0,42,0.00,,---,0.00,VWS V14.00,2013-04-11 13:19:00,
2013-04-11 06:25:00,25.5,5.6,23.39,SSW,194,0.0,0.0,42,0.00,,---,0.00,VWS V14.00,2013-04-11 13:25:00,
2013-04-11 06:30:00,25.7,5.8,23.39,SSW,194,0.0,0.0,42,0.00,,---,0.00,VWS V14.00,2013-04-11 13:30:00,
2013-04-11 06:35:00,25.9,6.0,23.39,SSW,194,0.0,0.0,42,0.00,,---,0.00,VWS V14.00,2013-04-11 13:35:00,
2013-04-11 06:40:00,26.1,6.1,23.39,SSW,194,0.0,0.0,42,0.00,,---,0.00,VWS V14.00,2013-04-11 13:40:00,
2013-04-11 06:45:00,26.4,6.4,23.39,SSW,194,0.0,0.0,42,0.00,,---,0.00,VWS V14.00,2013-04-11 13:45:00,
2013-04-11 06:51:00,26.8,6.2,23.39,SSW,194,0.0,0.0,41,0.00,,---,0.00,VWS V14.00,2013-04-11 13:51:00,
2013-04-11 06:56:00,27.0,6.4,23.39,SSW,194,0.0,0.0,41,0.00,,---,0.00,VWS V14.00,2013-04-11 13:56:00,
2013-04-11 07:01:00,27.3,6.7,23.39,SSW,194,0.0,0.0,41,0.00,,---,0.00,VWS V14.00,2013-04-11 14:01:00,
2013-04-11 07:06:00,27.9,7.2,23.39,SSW,194,0.0,0.0,41,0.00,,---,0.00,VWS V14.00,2013-04-11 14:06:00,
2013-04-11 07:11:00,28.6,7.9,23.39,SSW,194,0.0,0.0,41,0.00,,---,0.00,VWS V14.00,2013-04-11 14:11:00,
2013-04-11 07:16:00,29.7,8.9,23.39,SSW,194,0.0,0.0,41,0.00,,---,0.00,VWS V14.00,2013-04-11 14:16:00,
2013-04-11 07:22:00,30.6,9.7,23.39,SSW,194,0.0,0.0,41,0.00,,---,0.00,VWS V14.00,2013-04-11 14:22:00,
2013-04-11 07:27:00,31.3,10.3,23.39,SSW,194,0.0,0.0,41,0.00,,---,0.00,VWS V14.00,2013-04-11 14:27:00,
2013-04-11 07:32:00,32.2,11.1,23.39,SSW,194,0.0,0.0,41,0.00,,---,0.00,VWS V14.00,2013-04-11 14:32:00,
2013-04-11 07:38:00,33.4,12.3,23.39,SSW,194,0.0,0.0,41,0.00,,---,0.00,VWS V14.00,2013-04-11 14:38:00,
2013-04-11 07:43:00,34.9,13.0,23.39,SSW,208,2.7,2.7,40,0.00,,---,0.00,VWS V14.00,2013-04-11 14:43:00,
2013-04-11 07:48:00,36.9,14.8,23.39,West,276,2.7,3.6,40,0.00,,---,0.00,VWS V14.00,2013-04-11 14:48:00,
2013-04-11 07:53:00,38.5,15.7,23.39,WSW,246,4.0,4.0,39,0.00,,---,0.00,VWS V14.00,2013-04-11 14:53:00,
2013-04-11 07:58:00,40.1,17.1,23.39,West,272,3.1,4.0,39,0.00,,---,0.00,VWS V14.00,2013-04-11 14:58:00,
2013-04-11 08:03:00,41.7,18.6,23.39,NW,320,3.6,3.6,39,0.00,,---,0.00,VWS V14.00,2013-04-11 15:03:00,
2013-04-11 08:08:00,43.2,19.3,23.39,NW,313,3.1,5.4,38,0.00,,---,0.00,VWS V14.00,2013-04-11 15:08:00,
2013-04-11 08:13:00,44.4,20.4,23.39,WNW,297,3.6,3.6,38,0.00,,---,0.00,VWS V14.00,2013-04-11 15:13:00,
2013-04-11 08:18:00,45.5,21.4,23.39,SW,225,4.0,5.8,38,0.00,,---,0.00,VWS V14.00,2013-04-11 15:18:00,
2013-04-11 08:24:00,46.2,22.0,23.39,NW,311,4.0,4.0,38,0.00,,---,0.00,VWS V14.00,2013-04-11 15:24:00,
2013-04-11 08:29:00,46.8,21.9,23.39,WNW,283,2.7,6.7,37,0.00,,---,0.00,VWS V14.00,2013-04-11 15:29:00,
2013-04-11 08:34:00,47.5,22.5,23.39,SW,226,3.6,7.6,37,0.00,,---,0.00,VWS V14.00,2013-04-11 15:34:00,
2013-04-11 08:39:00,48.4,23.3,23.39,SW,216,3.1,5.4,37,0.00,,---,0.00,VWS V14.00,2013-04-11 15:39:00,
2013-04-11 08:44:00,49.1,24.0,23.39,NW,313,6.3,7.2,37,0.00,,---,0.00,VWS V14.00,2013-04-11 15:44:00,
2013-04-11 08:50:00,49.8,24.6,23.39,West,274,8.1,9.2,37,0.00,,---,0.00,VWS V14.00,2013-04-11 15:50:00,
2013-04-11 08:55:00,50.4,25.1,23.39,WNW,294,7.2,8.3,37,0.00,,---,0.00,VWS V14.00,2013-04-11 15:55:00,
2013-04-11 09:00:00,50.7,25.4,23.39,SSW,206,4.0,4.0,37,0.00,,---,0.00,VWS V14.00,2013-04-11 16:00:00,
2013-04-11 09:05:00,51.3,25.9,23.39,WNW,299,8.1,8.1,37,0.00,,---,0.00,VWS V14.00,2013-04-11 16:05:00,
2013-04-11 09:10:00,51.6,26.2,23.39,West,268,4.5,5.8,37,0.00,,---,0.00,VWS V14.00,2013-04-11 16:10:00,
2013-04-11 09:15:00,52.2,26.0,23.39,WNW,284,3.6,4.0,36,0.00,,---,0.00,VWS V14.00,2013-04-11 16:15:00,
2013-04-11 09:21:00,53.1,26.8,23.39,West,263,4.0,4.0,36,0.00,,---,0.00,VWS V14.00,2013-04-11 16:21:00,
2013-04-11 09:26:00,53.8,27.5,23.39,NW,305,5.8,5.8,36,0.00,,---,0.00,VWS V14.00,2013-04-11 16:26:00,
2013-04-11 09:31:00,54.5,28.1,23.36,WSW,253,3.6,6.3,36,0.00,,---,0.00,VWS V14.00,2013-04-11 16:31:00,
2013-04-11 09:36:00,55.0,28.6,23.36,NW,309,4.0,8.1,36,0.00,,---,0.00,VWS V14.00,2013-04-11 16:36:00,
2013-04-11 09:41:00,55.4,28.2,23.36,WSW,238,0.0,0.0,35,0.00,,---,0.00,VWS V14.00,2013-04-11 16:41:00,
2013-04-11 09:47:00,55.9,28.7,23.36,WSW,255,2.7,5.4,35,0.00,,---,0.00,VWS V14.00,2013-04-11 16:47:00,
2013-04-11 09:52:00,56.7,29.3,23.36,NW,305,4.0,8.1,35,0.00,,---,0.00,VWS V14.00,2013-04-11 16:52:00,
2013-04-11 09:57:00,57.0,29.7,23.36,WSW,241,5.4,7.6,35,0.00,,---,0.00,VWS V14.00,2013-04-11 16:57:00,
2013-04-11 10:02:00,57.6,30.1,23.36,West,269,4.0,7.6,35,0.00,,---,0.00,VWS V14.00,2013-04-11 17:02:00,
2013-04-11 10:07:00,57.6,30.1,23.36,WSW,244,4.0,6.3,35,0.00,,---,0.00,VWS V14.00,2013-04-11 17:07:00,
2013-04-11 10:13:00,58.1,30.6,23.36,West,259,8.1,8.1,35,0.00,,---,0.00,VWS V14.00,2013-04-11 17:13:00,
2013-04-11 10:18:00,58.3,30.8,23.36,WNW,283,8.7,10.1,35,0.00,,---,0.00,VWS V14.00,2013-04-11 17:18:00,
2013-04-11 10:23:00,58.5,30.9,23.36,WSW,252,7.6,10.1,35,0.00,,---,0.00,VWS V14.00,2013-04-11 17:23:00,
2013-04-11 10:28:00,59.2,31.6,23.36,West,266,5.8,6.3,35,0.00,,---,0.00,VWS V14.00,2013-04-11 17:28:00,
2013-04-11 10:33:00,59.9,32.2,23.36,SW,233,5.4,8.1,35,0.00,,---,0.00,VWS V14.00,2013-04-11 17:33:00,
2013-04-11 10:39:00,60.4,32.7,23.36,West,259,5.8,8.7,35,0.00,,---,0.00,VWS V14.00,2013-04-11 17:39:00,
2013-04-11 10:44:00,61.3,32.8,23.36,West,263,6.3,8.7,34,0.00,,---,0.00,VWS V14.00,2013-04-11 17:44:00,
2013-04-11 10:49:00,62.1,33.4,23.36,WSW,253,7.6,8.1,34,0.00,,---,0.00,VWS V14.00,2013-04-11 17:49:00,
2013-04-11 10:54:00,61.7,33.1,23.36,SW,227,4.0,8.3,34,0.00,,---,0.00,VWS V14.00,2013-04-11 17:54:00,
2013-04-11 10:59:00,61.9,33.2,23.36,WNW,300,6.3,8.3,34,0.00,,---,0.00,VWS V14.00,2013-04-11 17:59:00,
2013-04-11 11:04:00,62.2,33.5,23.36,SW,234,3.1,3.6,34,0.00,,---,0.00,VWS V14.00,2013-04-11 18:04:00,
2013-04-11 11:10:00,63.0,34.2,23.36,WNW,300,3.1,4.9,34,0.00,,---,0.00,VWS V14.00,2013-04-11 18:10:00,
2013-04-11 11:15:00,63.3,34.5,23.36,SSW,211,3.6,4.0,34,0.00,,---,0.00,VWS V14.00,2013-04-11 18:15:00,
2013-04-11 11:20:00,64.2,35.3,23.36,SSW,195,3.6,5.4,34,0.00,,---,0.00,VWS V14.00,2013-04-11 18:20:00,
2013-04-11 11:25:00,64.4,34.7,23.36,SW,224,8.1,9.6,33,0.00,,---,0.00,VWS V14.00,2013-04-11 18:25:00,
2013-04-11 11:30:00,64.8,35.0,23.36,West,263,5.8,5.8,33,0.00,,---,0.00,VWS V14.00,2013-04-11 18:30:00,
2013-04-11 11:35:00,65.7,35.8,23.36,SW,218,5.4,6.3,33,0.00,,---,0.00,VWS V14.00,2013-04-11 18:35:00,
2013-04-11 11:41:00,65.1,35.3,23.36,SW,227,6.3,8.3,33,0.00,,---,0.00,VWS V14.00,2013-04-11 18:41:00,
2013-04-11 11:46:00,63.9,35.0,23.36,NNW,337,3.6,5.4,34,0.00,,---,0.00,VWS V14.00,2013-04-11 18:46:00,
2013-04-11 11:51:00,63.1,34.3,23.36,West,259,7.6,7.6,34,0.00,,---,0.00,VWS V14.00,2013-04-11 18:51:00,
2013-04-11 11:56:00,62.2,33.5,23.36,West,262,5.8,6.3,34,0.00,,---,0.00,VWS V14.00,2013-04-11 18:56:00,
2013-04-11 12:01:00,62.2,33.5,23.36,SSW,199,3.6,9.6,34,0.00,,---,0.00,VWS V14.00,2013-04-11 19:01:00,
2013-04-11 12:07:00,62.8,34.0,23.36,SW,224,6.3,6.3,34,0.00,,---,0.00,VWS V14.00,2013-04-11 19:07:00,
2013-04-11 12:12:00,64.0,35.1,23.36,NW,317,8.3,8.3,34,0.00,,---,0.00,VWS V14.00,2013-04-11 19:12:00,
2013-04-11 12:17:00,64.2,35.3,23.36,SW,233,4.0,5.8,34,0.00,,---,0.00,VWS V14.00,2013-04-11 19:17:00,
2013-04-11 12:23:00,64.4,34.7,23.36,NW,316,4.0,4.9,33,0.00,,---,0.00,VWS V14.00,2013-04-11 19:23:00,
2013-04-11 12:28:00,64.9,35.2,23.36,WNW,299,4.0,4.9,33,0.00,,---,0.00,VWS V14.00,2013-04-11 19:28:00,
2013-04-11 12:33:00,66.0,36.1,23.36,West,260,12.8,14.5,33,0.00,,---,0.00,VWS V14.00,2013-04-11 19:33:00,
2013-04-11 12:38:00,66.4,36.4,23.36,SW,227,6.3,6.3,33,0.00,,---,0.00,VWS V14.00,2013-04-11 19:38:00,
2013-04-11 12:44:00,66.9,36.9,23.36,SW,230,5.8,13.2,33,0.00,,---,0.00,VWS V14.00,2013-04-11 19:44:00,
2013-04-11 12:49:00,67.1,37.1,23.36,SW,235,4.0,4.0,33,0.00,,---,0.00,VWS V14.00,2013-04-11 19:49:00,
2013-04-11 12:54:00,67.3,37.2,23.36,WSW,250,2.2,5.8,33,0.00,,---,0.00,VWS V14.00,2013-04-11 19:54:00,
2013-04-11 12:59:00,65.8,36.0,23.36,WNW,288,5.4,5.4,33,0.00,,---,0.00,VWS V14.00,2013-04-11 19:59:00,
2013-04-11 13:04:00,65.3,35.5,23.36,WNW,302,11.0,11.0,33,0.00,,---,0.00,VWS V14.00,2013-04-11 20:04:00,
2013-04-11 13:09:00,64.4,34.7,23.36,SW,224,4.9,8.7,33,0.00,,---,0.00,VWS V14.00,2013-04-11 20:09:00,
2013-04-11 13:15:00,63.5,34.7,23.36,SW,225,2.2,4.0,34,0.00,,---,0.00,VWS V14.00,2013-04-11 20:15:00,
2013-04-11 13:20:00,62.8,34.0,23.36,WNW,283,8.3,8.3,34,0.00,,---,0.00,VWS V14.00,2013-04-11 20:20:00,
2013-04-11 13:25:00,62.1,33.4,23.36,WSW,247,8.3,8.3,34,0.00,,---,0.00,VWS V14.00,2013-04-11 20:25:00,
2013-04-11 13:30:00,61.5,32.9,23.36,WNW,299,3.6,5.8,34,0.00,,---,0.00,VWS V14.00,2013-04-11 20:30:00,
2013-04-11 13:35:00,61.2,32.6,23.36,WSW,238,4.0,6.3,34,0.00,,---,0.00,VWS V14.00,2013-04-11 20:35:00,
2013-04-11 13:40:00,60.8,32.3,23.36,NW,316,10.1,10.1,34,0.00,,---,0.00,VWS V14.00,2013-04-11 20:40:00,
2013-04-11 13:45:00,60.3,32.5,23.36,WNW,293,7.6,9.6,35,0.00,,---,0.00,VWS V14.00,2013-04-11 20:45:00,
2013-04-11 13:50:00,59.5,31.9,23.36,West,276,9.2,9.2,35,0.00,,---,0.00,VWS V14.00,2013-04-11 20:50:00,
2013-04-11 13:56:00,59.0,31.4,23.36,WNW,297,5.8,5.8,35,0.00,,---,0.00,VWS V14.00,2013-04-11 20:56:00,
2013-04-11 14:01:00,59.0,31.4,23.36,NW,324,8.3,8.7,35,0.00,,---,0.00,VWS V14.00,2013-04-11 21:01:00,
2013-04-11 14:06:00,58.3,30.8,23.36,West,265,3.6,3.6,35,0.00,,---,0.00,VWS V14.00,2013-04-11 21:06:00,
2013-04-11 14:12:00,58.5,30.9,23.36,NW,308,3.1,7.6,35,0.00,,---,0.00,VWS V14.00,2013-04-11 21:12:00,
2013-04-11 14:17:00,59.2,31.6,23.36,SW,233,4.0,8.1,35,0.00,,---,0.00,VWS V14.00,2013-04-11 21:17:00,
2013-04-11 14:22:00,59.5,31.9,23.36,WNW,302,5.8,5.8,35,0.00,,---,0.00,VWS V14.00,2013-04-11 21:22:00,
2013-04-11 14:27:00,60.1,32.4,23.33,NNW,328,7.6,8.3,35,0.00,,---,0.00,VWS V14.00,2013-04-11 21:27:00,
2013-04-11 14:33:00,60.6,32.8,23.33,West,266,5.4,8.1,35,0.00,,---,0.00,VWS V14.00,2013-04-11 21:33:00,
2013-04-11 14:38:00,60.4,32.7,23.33,NW,316,10.1,10.1,35,0.00,,---,0.00,VWS V14.00,2013-04-11 21:38:00,
2013-04-11 14:43:00,60.1,32.4,23.33,WNW,298,6.7,9.2,35,0.00,,---,0.00,VWS V14.00,2013-04-11 21:43:00,
2013-04-11 14:48:00,61.0,32.4,23.33,WNW,289,3.6,8.3,34,0.00,,---,0.00,VWS V14.00,2013-04-11 21:48:00,
2013-04-11 14:54:00,61.9,33.2,23.33,WNW,282,3.6,6.3,34,0.00,,---,0.00,VWS V14.00,2013-04-11 21:54:00,
2013-04-11 14:59:00,62.2,33.5,23.33,SW,230,5.8,5.8,34,0.00,,---,0.00,VWS V14.00,2013-04-11 21:59:00,
2013-04-11 15:04:00,61.5,32.9,23.33,NNE,17,4.0,5.8,34,0.00,,---,0.00,VWS V14.00,2013-04-11 22:04:00,
2013-04-11 15:09:00,60.6,32.8,23.33,WNW,301,5.8,8.1,35,0.00,,---,0.00,VWS V14.00,2013-04-11 22:09:00,
2013-04-11 15:14:00,60.1,32.4,23.33,West,281,5.8,8.3,35,0.00,,---,0.00,VWS V14.00,2013-04-11 22:14:00,
2013-04-11 15:19:00,59.5,31.9,23.33,West,281,3.1,5.8,35,0.00,,---,0.00,VWS V14.00,2013-04-11 22:19:00,
2013-04-11 15:25:00,59.2,31.6,23.33,SW,228,6.3,6.3,35,0.00,,---,0.00,VWS V14.00,2013-04-11 22:25:00,
2013-04-11 15:30:00,58.8,31.2,23.33,NW,317,3.1,4.9,35,0.00,,---,0.00,VWS V14.00,2013-04-11 22:30:00,
2013-04-11 15:35:00,58.8,31.2,23.33,NW,317,9.6,9.6,35,0.00,,---,0.00,VWS V14.00,2013-04-11 22:35:00,
2013-04-11 15:40:00,58.8,31.2,23.33,SW,223,6.3,6.7,35,0.00,,---,0.00,VWS V14.00,2013-04-11 22:40:00,
2013-04-11 15:45:00,58.6,31.1,23.33,West,264,5.8,12.3,35,0.00,,---,0.00,VWS V14.00,2013-04-11 22:45:00,
2013-04-11 15:50:00,58.6,31.1,23.33,SW,235,3.1,3.1,35,0.00,,---,0.00,VWS V14.00,2013-04-11 22:50:00,
2013-04-11 15:55:00,58.8,31.2,23.33,North,353,10.1,10.1,35,0.00,,---,0.00,VWS V14.00,2013-04-11 22:55:00,
2013-04-11 16:01:00,58.8,31.2,23.33,NNW,329,11.0,11.0,35,0.00,,---,0.00,VWS V14.00,2013-04-11 23:01:00,
2013-04-11 16:06:00,58.3,30.8,23.33,NNW,328,0.0,2.7,35,0.00,,---,0.00,VWS V14.00,2013-04-11 23:06:00,
2013-04-11 16:11:00,57.9,30.5,23.33,NNW,344,3.6,5.8,35,0.00,,---,0.00,VWS V14.00,2013-04-11 23:11:00,
2013-04-11 16:16:00,57.6,30.1,23.30,WNW,303,2.7,5.4,35,0.00,,---,0.00,VWS V14.00,2013-04-11 23:16:00,
2013-04-11 16:21:00,57.2,29.8,23.30,West,264,6.3,10.1,35,0.00,,---,0.00,VWS V14.00,2013-04-11 23:21:00,
2013-04-11 16:26:00,57.4,30.0,23.30,WSW,238,5.4,6.3,35,0.00,,---,0.00,VWS V14.00,2013-04-11 23:26:00,
2013-04-11 16:32:00,57.2,29.8,23.33,West,266,8.1,8.1,35,0.00,,---,0.00,VWS V14.00,2013-04-11 23:32:00,
2013-04-11 16:37:00,56.8,29.5,23.33,West,265,8.3,8.3,35,0.00,,---,0.00,VWS V14.00,2013-04-11 23:37:00,
2013-04-11 16:42:00,56.7,29.3,23.33,SW,224,4.0,6.3,35,0.00,,---,0.00,VWS V14.00,2013-04-11 23:42:00,
2013-04-11 16:47:00,56.5,29.2,23.33,WNW,297,0.0,4.0,35,0.00,,---,0.00,VWS V14.00,2013-04-11 23:47:00,
2013-04-11 16:52:00,56.1,28.9,23.33,NNW,339,5.4,5.8,35,0.00,,---,0.00,VWS V14.00,2013-04-11 23:52:00,
2013-04-11 16:58:00,55.6,28.4,23.33,NW,311,2.7,4.0,35,0.00,,---,0.00,VWS V14.00,2013-04-11 23:58:00,
2013-04-11 17:03:00,55.6,28.4,23.33,NW,317,3.6,5.4,35,0.00,,---,0.00,VWS V14.00,2013-04-12 00:03:00,
2013-04-11 17:08:00,55.8,28.5,23.33,NW,313,2.2,2.7,35,0.00,,---,0.00,VWS V14.00,2013-04-12 00:08:00,
2013-04-11 17:13:00,55.8,28.5,23.33,NNW,329,5.4,5.4,35,0.00,,---,0.00,VWS V14.00,2013-04-12 00:13:00,
2013-04-11 17:19:00,55.9,28.7,23.33,WNW,289,4.5,4.9,35,0.00,,---,0.00,VWS V14.00,2013-04-12 00:19:00,
2013-04-11 17:24:00,56.7,29.3,23.33,North,3,4.0,6.3,35,0.00,,---,0.00,VWS V14.00,2013-04-12 00:24:00,
2013-04-11 17:29:00,56.5,29.2,23.33,NW,324,2.7,4.9,35,0.00,,---,0.00,VWS V14.00,2013-04-12 00:29:00,
2013-04-11 17:34:00,56.8,29.5,23.33,North,357,4.9,6.3,35,0.00,,---,0.00,VWS V14.00,2013-04-12 00:34:00,
2013-04-11 17:39:00,57.2,29.8,23.33,WNW,283,5.4,5.4,35,0.00,,---,0.00,VWS V14.00,2013-04-12 00:39:00,
2013-04-11 17:45:00,56.7,29.3,23.33,WNW,284,2.7,3.6,35,0.00,,---,0.00,VWS V14.00,2013-04-12 00:45:00,
2013-04-11 17:50:00,55.9,28.7,23.33,WNW,289,2.7,4.0,35,0.00,,---,0.00,VWS V14.00,2013-04-12 00:50:00,
2013-04-11 17:55:00,55.6,28.4,23.33,West,276,3.1,3.1,35,0.00,,---,0.00,VWS V14.00,2013-04-12 00:55:00,
2013-04-11 18:00:00,55.2,28.8,23.33,NNW,341,3.6,5.4,36,0.00,,---,0.00,VWS V14.00,2013-04-12 01:00:00,
2013-04-11 18:05:00,54.9,28.4,23.33,NW,320,2.7,3.1,36,0.00,,---,0.00,VWS V14.00,2013-04-12 01:05:00,
2013-04-11 18:10:00,54.5,28.1,23.33,WNW,288,0.0,0.0,36,0.00,,---,0.00,VWS V14.00,2013-04-12 01:10:00,
2013-04-11 18:16:00,54.1,27.8,23.33,NNW,346,2.2,3.6,36,0.00,,---,0.00,VWS V14.00,2013-04-12 01:16:00,
2013-04-11 18:21:00,53.8,27.5,23.33,NW,317,0.0,0.0,36,0.00,,---,0.00,VWS V14.00,2013-04-12 01:21:00,
2013-04-11 18:26:00,53.2,27.0,23.33,NW,315,0.0,0.0,36,0.00,,---,0.00,VWS V14.00,2013-04-12 01:26:00,
2013-04-11 18:31:00,52.9,26.7,23.33,West,266,0.0,0.0,36,0.00,,---,0.00,VWS V14.00,2013-04-12 01:31:00,
2013-04-11 18:36:00,52.3,26.2,23.33,WSW,239,0.0,2.7,36,0.00,,---,0.00,VWS V14.00,2013-04-12 01:36:00,
2013-04-11 18:41:00,51.6,26.2,23.33,NW,324,0.0,0.0,37,0.00,,---,0.00,VWS V14.00,2013-04-12 01:41:00,
2013-04-11 18:46:00,50.9,25.6,23.33,NW,324,0.0,0.0,37,0.00,,---,0.00,VWS V14.00,2013-04-12 01:46:00,
2013-04-11 18:52:00,50.2,24.9,23.33,NW,324,0.0,0.0,37,0.00,,---,0.00,VWS V14.00,2013-04-12 01:52:00,
2013-04-11 18:57:00,49.6,24.5,23.33,NW,324,0.0,0.0,37,0.00,,---,0.00,VWS V14.00,2013-04-12 01:57:00,
2013-04-11 19:02:00,48.7,23.6,23.33,NW,324,0.0,0.0,37,0.00,,---,0.00,VWS V14.00,2013-04-12 02:02:00,
2013-04-11 19:07:00,48.0,23.0,23.33,NW,324,0.0,0.0,37,0.00,,---,0.00,VWS V14.00,2013-04-12 02:07:00,
2013-04-11 19:12:00,47.3,22.4,23.33,NW,324,0.0,0.0,37,0.00,,---,0.00,VWS V14.00,2013-04-12 02:12:00,
2013-04-11 19:17:00,46.6,21.7,23.33,NW,324,0.0,0.0,37,0.00,,---,0.00,VWS V14.00,2013-04-12 02:17:00,
2013-04-11 19:22:00,46.0,21.9,23.33,NW,324,0.0,0.0,38,0.00,,---,0.00,VWS V14.00,2013-04-12 02:22:00,
2013-04-11 19:28:00,45.3,21.2,23.33,NW,324,0.0,0.0,38,0.00,,---,0.00,VWS V14.00,2013-04-12 02:28:00,
2013-04-11 19:33:00,45.0,20.9,23.33,NW,324,0.0,0.0,38,0.00,,---,0.00,VWS V14.00,2013-04-12 02:33:00,
2013-04-11 19:38:00,44.6,20.6,23.33,NW,324,0.0,0.0,38,0.00,,---,0.00,VWS V14.00,2013-04-12 02:38:00,
2013-04-11 19:43:00,44.2,20.3,23.33,NW,324,0.0,0.0,38,0.00,,---,0.00,VWS V14.00,2013-04-12 02:43:00,
2013-04-11 19:48:00,44.1,20.1,23.33,NW,324,0.0,0.0,38,0.00,,---,0.00,VWS V14.00,2013-04-12 02:48:00,
2013-04-11 19:53:00,43.9,19.9,23.33,NW,324,0.0,0.0,38,0.00,,---,0.00,VWS V14.00,2013-04-12 02:53:00,
2013-04-11 19:58:00,43.9,19.9,23.33,NW,324,0.0,0.0,38,0.00,,---,0.00,VWS V14.00,2013-04-12 02:58:00,
2013-04-11 20:03:00,43.7,19.8,23.33,NW,324,0.0,0.0,38,0.00,,---,0.00,VWS V14.00,2013-04-12 03:03:00,
2013-04-11 20:08:00,43.3,19.5,23.33,NW,324,0.0,0.0,38,0.00,,---,0.00,VWS V14.00,2013-04-12 03:08:00,
2013-04-11 20:14:00,43.2,19.3,23.33,NW,324,0.0,0.0,38,0.00,,---,0.00,VWS V14.00,2013-04-12 03:14:00,
2013-04-11 20:19:00,42.8,19.0,23.33,NW,324,0.0,0.0,38,0.00,,---,0.00,VWS V14.00,2013-04-12 03:19:00,
2013-04-11 20:24:00,42.6,19.4,23.33,NW,324,0.0,0.0,39,0.00,,---,0.00,VWS V14.00,2013-04-12 03:24:00,
2013-04-11 20:29:00,42.3,19.1,23.33,NW,324,0.0,0.0,39,0.00,,---,0.00,VWS V14.00,2013-04-12 03:29:00,
2013-04-11 20:34:00,41.9,18.8,23.33,NW,324,0.0,0.0,39,0.00,,---,0.00,VWS V14.00,2013-04-12 03:34:00,
2013-04-11 20:39:00,41.4,18.3,23.33,NW,324,0.0,0.0,39,0.00,,---,0.00,VWS V14.00,2013-04-12 03:39:00,
2013-04-11 20:44:00,41.0,18.0,23.33,NW,324,0.0,0.0,39,0.00,,---,0.00,VWS V14.00,2013-04-12 03:44:00,
2013-04-11 20:49:00,40.5,17.5,23.33,NW,324,0.0,0.0,39,0.00,,---,0.00,VWS V14.00,2013-04-12 03:49:00,
2013-04-11 20:55:00,39.9,17.0,23.33,NW,324,0.0,0.0,39,0.00,,---,0.00,VWS V14.00,2013-04-12 03:55:00,
2013-04-11 21:00:00,39.4,16.5,23.33,NW,324,0.0,0.0,39,0.00,,---,0.00,VWS V14.00,2013-04-12 04:00:00,
2013-04-11 21:01:00,39.2,16.3,23.33,NW,324,0.0,0.0,39,0.00,,---,0.00,VWS V14.00,2013-04-12 04:01:00,
2013-04-11 21:03:00,39.0,16.2,23.33,NW,324,0.0,0.0,39,0.00,,---,0.00,VWS V14.00,2013-04-12 04:03:00,
2013-04-11 21:08:00,38.7,15.9,23.33,NW,324,0.0,0.0,39,0.00,,---,0.00,VWS V14.00,2013-04-12 04:08:00,
2013-04-11 21:14:00,38.1,15.4,23.36,NW,324,0.0,0.0,39,0.00,,---,0.00,VWS V14.00,2013-04-12 04:14:00,
2013-04-11 21:19:00,37.8,15.0,23.36,NW,324,0.0,0.0,39,0.00,,---,0.00,VWS V14.00,2013-04-12 04:19:00,
2013-04-11 21:24:00,37.4,14.7,23.36,NW,324,0.0,0.0,39,0.00,,---,0.00,VWS V14.00,2013-04-12 04:24:00,
2013-04-11 21:29:00,37.0,15.0,23.36,NW,324,0.0,0.0,40,0.00,,---,0.00,VWS V14.00,2013-04-12 04:29:00,
2013-04-11 21:34:00,36.7,14.6,23.36,NW,324,0.0,0.0,40,0.00,,---,0.00,VWS V14.00,2013-04-12 04:34:00,
2013-04-11 21:39:00,36.3,14.3,23.36,NW,324,0.0,0.0,40,0.00,,---,0.00,VWS V14.00,2013-04-12 04:39:00,
2013-04-11 21:44:00,36.0,14.0,23.36,NW,324,0.0,0.0,40,0.00,,---,0.00,VWS V14.00,2013-04-12 04:44:00,
2013-04-11 21:49:00,35.6,13.7,23.36,NW,324,0.0,0.0,40,0.00,,---,0.00,VWS V14.00,2013-04-12 04:49:00,
2013-04-11 21:54:00,35.4,13.5,23.36,NW,324,0.0,0.0,40,0.00,,---,0.00,VWS V14.00,2013-04-12 04:54:00,
2013-04-11 22:00:00,35.1,13.2,23.36,NW,324,0.0,0.0,40,0.00,,---,0.00,VWS V14.00,2013-04-12 05:00:00,
2013-04-11 22:05:00,34.7,12.9,23.36,NW,324,0.0,0.0,40,0.00,,---,0.00,VWS V14.00,2013-04-12 05:05:00,
2013-04-11 22:10:00,34.5,12.7,23.36,NW,324,0.0,0.0,40,0.00,,---,0.00,VWS V14.00,2013-04-12 05:10:00,
2013-04-11 22:15:00,34.3,12.5,23.36,NW,324,0.0,0.0,40,0.00,,---,0.00,VWS V14.00,2013-04-12 05:15:00,
2013-04-11 22:20:00,34.0,12.2,23.36,NW,324,0.0,0.0,40,0.00,,---,0.00,VWS V14.00,2013-04-12 05:20:00,
2013-04-11 22:25:00,33.8,12.1,23.36,NW,324,0.0,0.0,40,0.00,,---,0.00,VWS V14.00,2013-04-12 05:25:00,
2013-04-11 22:30:00,33.6,12.4,23.36,NW,324,0.0,0.0,41,0.00,,---,0.00,VWS V14.00,2013-04-12 05:30:00,
2013-04-11 22:35:00,33.4,12.3,23.36,NW,324,0.0,0.0,41,0.00,,---,0.00,VWS V14.00,2013-04-12 05:35:00,
2013-04-11 22:40:00,33.3,12.1,23.36,NW,324,0.0,0.0,41,0.00,,---,0.00,VWS V14.00,2013-04-12 05:40:00,
2013-04-11 22:45:00,33.1,12.0,23.33,NW,324,0.0,0.0,41,0.00,,---,0.00,VWS V14.00,2013-04-12 05:45:00,
2013-04-11 22:50:00,32.7,11.6,23.33,NW,324,0.0,0.0,41,0.00,,---,0.00,VWS V14.00,2013-04-12 05:50:00,
2013-04-11 22:56:00,32.7,11.6,23.33,NW,324,0.0,0.0,41,0.00,,---,0.00,VWS V14.00,2013-04-12 05:56:00,
2013-04-11 23:01:00,32.4,11.3,23.36,NW,324,0.0,0.0,41,0.00,,---,0.00,VWS V14.00,2013-04-12 06:01:00,
2013-04-11 23:06:00,32.2,11.1,23.36,NW,324,0.0,0.0,41,0.00,,---,0.00,VWS V14.00,2013-04-12 06:06:00,
2013-04-11 23:12:00,31.8,10.8,23.36,NW,324,0.0,0.0,41,0.00,,---,0.00,VWS V14.00,2013-04-12 06:12:00,
2013-04-11 23:17:00,31.6,10.6,23.36,NW,324,0.0,0.0,41,0.00,,---,0.00,VWS V14.00,2013-04-12 06:17:00,
2013-04-11 23:22:00,31.5,10.5,23.36,NW,324,0.0,0.0,41,0.00,,---,0.00,VWS V14.00,2013-04-12 06:22:00,
2013-04-11 23:27:00,31.1,10.2,23.36,NW,324,0.0,0.0,41,0.00,,---,0.00,VWS V14.00,2013-04-12 06:27:00,